Location: Newark
(49.5647°N, 8.2922°E)
Time: 13:31:53
(UTC+00:00)

Transit 2A - Pass Details

Date: 21 February 2020
Orbit: 597 x 961 km, 66.7° (Epoch: 30 March)

Event Time Altitude Azimuth Distance (km) Brightness Sun altitude
Rises 12:47:17 0° 201° (SSW) 2,831 10.2 28.0°
Reaches altitude 10° 12:49:32 10° 197° (SSW) 1,928 9.9 27.9°
Maximum altitude 12:53:43 55° 120° (ESE) 731 6.4 27.7°
Drops below altitude 10° 12:58:03 10° 43° (NE) 1,997 7.7 27.4°
Sets 13:00:25 0° 39° (NE) 2,945 8.5 27.3°
